Home > Weather > Ljubljana > Past weeks

Flag for Slovenia Past Weather in Ljubljana, Slovenia — Yesterday and Last 2 Weeks

Now
61 °F

Fog.


Feels Like: 61 °F
Forecast: 51 / 82 °F
Wind: 1 mph from Northeast

Location: Ljubljana / Bezigrad

Current Time: Aug 26, 2016 at 9:05:47 AM

Latest Report: Aug 26, 2016 at 8:00 AM


Visibility: 7 mi

Pressure: 30.19 "Hg

Humidity: 85%

Dew Point: 56 °F

Location of LjubljanaLocation

Past Weather in Ljubljana — Graph

°F

Ljubljana Temperature Yesterday

Maximum temperature yesterday: 81 °F (at 4:00 PM)
Minimum temperature yesterday: 59 °F (at 6:00 AM)
Average temperature yesterday: 70 °F

High & Low Weather Summary for the Past Weeks

 TemperatureHumidityPressure
High87 °F (Aug 15, 4:00 PM)95% (Aug 12, 6:00 AM)30.33 "Hg (Aug 12, 6:00 AM)
Low48 °F (Aug 12, 5:00 AM)31% (Aug 22, 5:00 PM)29.80 "Hg (Aug 18, 5:00 PM)
Average68 °F70%30.10 "Hg
* Reported Aug 11 7:00 AM — Aug 26 7:00 AM, Ljubljana, Weather by CustomWeather, © 2016

Note: Actual official high and low records may vary slightly from our data, if they occured in-between our weather recording intervals... More about our weather records

Advertising

Ljubljana Weather History for the Previous 24 Hours

Scroll right to see more
 ConditionsComfort  
Time TempWeatherWind HumidityBarometerVisibility
7:00 AM
Fri, Aug 26
58 °FFog.No wind90%30.19 "Hg7 mi
6:00 AM58 °FFog.No wind91%30.19 "Hg7 mi
5:00 AM59 °FCool.1 mph91%30.19 "HgN/A
4:00 AM60 °FCool.1 mph89%30.19 "HgN/A
3:00 AM60 °FCool.1 mph87%30.19 "HgN/A
2:00 AM62 °FCool.No wind84%30.19 "HgN/A
1:00 AM64 °FMild.1 mph81%30.19 "HgN/A
12:00 AM65 °FMild.1 mph77%30.18 "HgN/A
11:00 PM
Thu, Aug 25
66 °FMild.1 mph75%30.17 "HgN/A
10:00 PM68 °FPassing clouds.1 mph70%30.17 "Hg25 mi
9:00 PM71 °FPassing clouds.1 mph64%30.15 "Hg31 mi
8:00 PM74 °FPassing clouds.1 mph55%30.13 "Hg25 mi
7:00 PM77 °FPassing clouds.2 mph49%30.11 "Hg25 mi
6:00 PM79 °FPassing clouds.3 mph43%30.10 "Hg25 mi
5:00 PM80 °FPassing clouds.3 mph41%30.11 "Hg25 mi
4:00 PM81 °FPassing clouds.3 mph43%30.11 "Hg25 mi
3:00 PM80 °FPassing clouds.5 mph44%30.12 "Hg25 mi
2:00 PM79 °FScattered clouds.5 mph43%30.14 "Hg25 mi
1:00 PM79 °FPassing clouds.3 mph44%30.14 "Hg25 mi
12:00 PM77 °FPassing clouds.3 mph48%30.16 "Hg25 mi
11:00 AM76 °FPassing clouds.3 mph52%30.17 "Hg25 mi
10:00 AM70 °FPassing clouds.1 mph65%30.19 "Hg25 mi
9:00 AM65 °FFog.1 mph73%30.19 "Hg25 mi
Weather by CustomWeather, © 2016

See weather overviewHow to use our weather pages